Location: Fort Wayne
(41.1310°N, 85.1290°W)
Time: 05:43:12
(UTC-04:00)

ISS - Visible Passes

Search period start: 31 July 2016 00:00
Search period end: 10 August 2016 00:00
Orbit: 401 x 404 km, 51.6° (Epoch: 31 July)

Date Brightness Start Highest point End Pass type
(mag) Time Alt. Az. Time Alt. Az. Time Alt. Az.
31 Jul -0.2 00:25:20 10° NNW 00:26:58 13° N 00:27:58 12° NNE visible
31 Jul -1.1 21:53:36 10° W 21:56:26 27° NNW 21:59:18 10° NE visible
31 Jul -0.2 23:32:01 10° NW 23:33:42 13° N 23:35:24 10° NNE visible
01 Aug 0.1 01:08:47 10° NNW 01:09:15 12° NNW 01:09:15 12° NNW visible
01 Aug -0.3 22:38:28 10° NW 22:40:27 15° N 22:42:25 10° NNE visible
02 Aug -0.3 00:15:57 10° NNW 00:17:54 15° N 00:17:57 15° N visible
02 Aug -0.5 21:44:52 10° WNW 21:47:14 18° NNW 21:49:36 10° NNE visible
02 Aug -0.3 23:22:58 10° NNW 23:24:38 13° N 23:26:18 10° NE visible
03 Aug 0.2 00:59:05 10° NW 00:59:15 11° NW 00:59:15 11° NW visible
03 Aug -0.4 22:29:43 10° NNW 22:31:22 13° N 22:33:01 10° NNE visible
04 Aug -0.5 00:06:19 10° NNW 00:08:00 18° N 00:08:00 18° N visible
04 Aug -0.4 21:36:13 10° NW 21:38:05 14° N 21:39:59 10° NNE visible
04 Aug -0.7 23:13:30 10° NNW 23:15:32 15° NNE 23:16:45 13° NE visible
05 Aug -0.5 22:20:33 10° NNW 22:22:17 13° N 22:24:01 10° NE visible
05 Aug -0.7 23:56:36 10° NW 23:58:07 21° NNW 23:58:07 21° NNW visible
06 Aug -0.5 21:27:22 10° NNW 21:29:00 13° N 21:30:37 10° NNE visible
06 Aug -1.2 23:03:48 10° NNW 23:06:22 21° NNE 23:06:54 20° NE visible
07 Aug -0.8 22:11:00 10° NNW 22:13:09 16° NNE 22:15:18 10° NE visible
07 Aug -0.8 23:46:55 10° NW 23:48:19 23° NW 23:48:19 23° NW visible
08 Aug -0.6 21:18:06 10° NNW 21:19:54 14° N 21:21:42 10° NE visible
08 Aug -2.0 22:54:05 10° NW 22:57:04 32° NNE 22:57:09 32° NNE visible
09 Aug -1.4 22:01:17 10° NNW 22:03:57 22° NNE 22:06:02 13° ENE visible
09 Aug -0.9 23:37:23 10° WNW 23:38:37 21° WNW 23:38:37 21° WNW visible
